Find Kosmos-797

NORAD ID: 8613 Int'l Des: 1976-008 Owner: GUKOSR Country: SU operational
LEOCIRCULAR

Current View

Loading 3D Globe...

About Kosmos-797

Description loading...

Upcoming Passes

Passes for default location (London). Set your location on the main map for personalized predictions.

Altitude History

Loading altitude history...

Two-Line Element Set

1 8613U 76008G 26150.56008199 -.00000026 00000-0 -79775-4 0 9990
2 8613 74.0549 87.7886 0031551 31.9129 79.9220 12.40688575279826
Epoch: May 30, 2026 • Age: 8 hours

Current Status

Altitude 1498.0 km
Velocity 7.13 km/s
Sub-Earth Point 69.77°N, 65.45°W
Type other

Most Searched